Location: Marion Hill
(40.7303°N, 80.2959°W)
Time: 07:15:00
(UTC+00:00)

Cosmos 1689 Rocket - Pass Details

Date: 29 October 2020
Orbit: 360 x 375 km, 97.5° (Epoch: 28 November)

Event Time Altitude Azimuth Distance (km) Brightness Sun altitude
Rises 22:54:42 0° 25° (NNE) 2,203 5.5 -7.1°
Reaches altitude 10° 22:56:53 10° 41° (NE) 1,350 4.4 -7.5°
Maximum altitude 22:59:16 23° 97° (E) 816 3.2 -7.9°
Drops below altitude 10° 23:01:38 10° 153° (SSE) 1,339 4.7 -8.4°
Sets 23:03:47 0° 169° (SSE) 2,181 5.9 -8.8°
